FW1419 Weather Reports


time (UTC)temp
C
wind
direction
speed
KPH
gust
KPH
rain 1hr
cm
rain 24hr
cm
rain mn
cm
humidity
%
barometer
mb
20260507045821 16 291 0.0 0.0 0.00 0.00 0.00 72 1017.9
20260507045317 16 291 0.0 0.0 0.00 0.00 0.00 71 1017.8
20260507044829 17 291 0.0 0.0 0.00 0.00 0.00 70 1017.8
20260507044321 17 291 0.0 0.0 0.00 0.00 0.00 70 1017.7
20260507043811 17 291 0.0 0.0 0.00 0.00 0.00 69 1017.7
20260507043323 17 291 0.0 0.0 0.00 0.00 0.00 69 1017.6
20260507042814 17 229 0.0 0.0 0.00 0.00 0.00 69 1017.7
20260507042325 17 229 0.0 0.0 0.00 0.00 0.00 69 1017.6
20260507041816 17 229 0.0 0.0 0.00 0.00 0.00 68 1017.6
20260507041311 17 229 0.0 0.0 0.00 0.00 0.00 68 1017.6
20260507040822 17 229 0.0 0.0 0.00 0.00 0.00 68 1017.5
20260507040312 17 229 0.0 0.0 0.00 0.00 0.00 66 1017.4
20260507035824 17 229 0.0 0.0 0.00 0.00 0.00 66 1017.4
20260507035314 17 229 0.0 0.0 0.00 0.00 0.00 66 1017.4
20260507034826 18 229 0.0 0.0 0.00 0.00 0.00 64 1017.3
20260507034317 18 229 0.0 0.0 0.00 0.00 0.00 64 1017.2
20260507033828 18 229 0.0 0.0 0.00 0.00 0.00 63 1017.2
20260507033319 18 229 0.0 0.0 0.00 0.00 0.00 63 1017.1
20260507032829 18 229 0.0 0.0 0.00 0.00 0.00 62 1017.1
20260507032325 18 229 0.0 0.0 0.00 0.00 0.00 61 1017.0
20260507031816 19 229 0.0 0.0 0.00 0.00 0.00 61 1017.1
20260507031348 19 229 0.0 3.2 0.00 0.00 0.00 60 1016.9
20260507030817 20 229 1.6 9.7 0.00 0.00 0.00 60 1016.8
20260507030329 20 219 1.6 9.7 0.00 0.00 0.00 59 1016.8
20260507025821 20 208 1.6 6.4 0.00 0.00 0.00 59 1016.7
20260507025311 20 210 3.2 9.7 0.00 0.00 0.00 58 1016.6
20260507024822 20 207 6.4 11.3 0.00 0.00 0.00 58 1016.6
20260507024333 20 207 4.8 11.3 0.00 0.00 0.00 57 1016.5
20260507023823 20 229 4.8 9.7 0.00 0.00 0.00 57 1016.5
20260507023334 21 236 3.2 11.3 0.00 0.00 0.00 56 1016.3
20260507022824 21 200 4.8 12.9 0.00 0.00 0.00 56 1016.3
20260507022318 21 233 6.4 16.1 0.00 0.00 0.00 55 1016.2
20260507021829 21 215 8.0 16.1 0.00 0.00 0.00 54 1016.2
20260507021341 21 219 8.0 14.5 0.00 0.00 0.00 54 1016.1
20260507020830 22 220 8.0 16.1 0.00 0.00 0.00 53 1016.0
20260507020321 22 215 9.7 16.1 0.00 0.00 0.00 52 1015.9
20260507015852 22 193 8.0 17.7 0.00 0.00 0.00 52 1015.8
20260507015323 22 194 11.3 17.7 0.00 0.00 0.00 51 1015.8
20260507014813 23 233 8.0 17.7 0.00 0.00 0.00 50 1015.6
20260507014325 23 245 8.0 16.1 0.00 0.00 0.00 49 1015.7
20260507013837 23 214 8.0 16.1 0.00 0.00 0.00 48 1015.7
20260507013311 23 233 9.7 16.1 0.00 0.00 0.00 47 1015.5
20260507012822 24 209 6.4 14.5 0.00 0.00 0.00 47 1015.5
20260507012312 24 217 6.4 14.5 0.00 0.00 0.00 45 1015.5
20260507011823 25 206 4.8 14.5 0.00 0.00 0.00 45 1015.4
20260507011315 25 233 4.8 14.5 0.00 0.00 0.00 43 1015.4
20260507010847 25 272 6.4 11.3 0.00 0.00 0.00 43 1015.3
20260507010317 25 255 3.2 17.7 0.00 0.00 0.00 42 1015.3
20260507005830 25 285 4.8 17.7 0.00 0.00 0.00 42 1015.3
20260507005342 25 262 6.4 12.9 0.00 0.00 0.00 41 1015.2
20260507004811 25 213 4.8 12.9 0.00 0.00 0.00 40 1015.2
20260507004321 26 215 3.2 12.9 0.00 0.00 0.00 40 1015.2
20260507003817 26 236 3.2 9.7 0.00 0.00 0.00 39 1015.2
20260507003328 25 285 6.4 12.9 0.00 0.00 0.00 34 1015.2
20260507002819 25 281 6.4 12.9 0.00 0.00 0.00 33 1015.1
20260507002329 26 305 3.2 12.9 0.00 0.00 0.00 33 1015.1
20260507001819 25 308 4.8 19.3 0.00 0.00 0.00 33 1015.1
20260507001310 26 245 6.4 19.3 0.00 0.00 0.00 33 1014.9
20260507000841 26 307 6.4 14.5 0.00 0.00 0.00 32 1014.9
20260507000331 26 208 6.4 14.5 0.00 0.00 0.00 33 1014.9
20260506235821 26 303 4.8 17.7 0.00 0.00 0.00 33 1014.8
20260506235316 25 257 8.0 17.7 0.00 0.00 0.00 33 1014.8
20260506234827 25 314 8.0 17.7 0.00 0.00 0.00 34 1014.8
20260506234319 26 342 8.0 16.1 0.00 0.00 0.00 33 1014.8
20260506233850 25 323 8.0 17.7 0.00 0.00 0.00 33 1014.8
20260506233320 26 306 9.7 17.7 0.00 0.00 0.00 33 1014.8
20260506232812 26 296 6.4 17.7 0.00 0.00 0.00 33 1014.8
20260506232324 26 263 3.2 24.1 0.00 0.00 0.00 34 1014.7
20260506231835 26 315 8.0 24.1 0.00 0.00 0.00 33 1014.8
20260506231325 26 289 4.8 12.9 0.00 0.00 0.00 33 1014.8
20260506230816 26 300 6.4 14.5 0.00 0.00 0.00 33 1014.9
20260506230327 26 298 3.2 14.5 0.00 0.00 0.00 33 1014.9
20260506225838 26 216 1.6 9.7 0.00 0.00 0.00 33 1014.9
20260506225312 26 226 4.8 9.7 0.00 0.00 0.00 32 1015.0
20260506224823 26 231 0.0 6.4 0.00 0.00 0.00 33 1015.0
20260506224314 26 276 3.2 9.7 0.00 0.00 0.00 32 1015.1
20260506223825 26 215 3.2 9.7 0.00 0.00 0.00 33 1015.2
20260506223317 26 224 3.2 9.7 0.00 0.00 0.00 34 1015.3
20260506222849 25 231 1.6 9.7 0.00 0.00 0.00 34 1015.2
20260506222318 26 266 3.2 9.7 0.00 0.00 0.00 33 1015.3
20260506221830 26 130 3.2 9.7 0.00 0.00 0.00 34 1015.4
20260506221320 25 247 1.6 8.0 0.00 0.00 0.00 34 1015.4
20260506220815 25 273 1.6 11.3 0.00 0.00 0.00 34 1015.4
20260506220326 25 266 3.2 14.5 0.00 0.00 0.00 34 1015.6
20260506215817 25 221 4.8 14.5 0.00 0.00 0.00 34 1015.6
20260506215349 25 212 3.2 11.3 0.00 0.00 0.00 34 1015.7
20260506214820 25 222 3.2 11.3 0.00 0.00 0.00 35 1015.9
20260506214351 24 211 3.2 11.3 0.00 0.00 0.00 36 1016.0
20260506213821 24 313 6.4 11.3 0.00 0.00 0.00 35 1016.0
20260506213312 24 303 4.8 11.3 0.00 0.00 0.00 34 1016.1
20260506212823 25 12 3.2 8.0 0.00 0.00 0.00 34 1016.1
20260506212334 24 264 1.6 9.7 0.00 0.00 0.00 35 1016.2
20260506211824 24 162 4.8 9.7 0.00 0.00 0.00 35 1016.3
20260506211320 23 219 3.2 11.3 0.00 0.00 0.00 35 1016.4
20260506210831 23 282 6.4 11.3 0.00 0.00 0.00 37 1016.3
20260506210321 23 44 3.2 9.7 0.00 0.00 0.00 36 1016.3
20260506205811 23 288 3.2 9.7 0.00 0.00 0.00 37 1016.5
20260506205323 23 325 3.2 6.4 0.00 0.00 0.00 36 1016.6
20260506204814 23 320 1.6 6.4 0.00 0.00 0.00 36 1016.6
20260506204346 22 214 1.6 9.7 0.00 0.00 0.00 37 1016.6
20260506203815 22 207 4.8 9.7 0.00 0.00 0.00 38 1016.7
20260506203311 22 315 6.4 11.3 0.00 0.00 0.00 37 1016.8
20260506202823 22 276 3.2 11.3 0.00 0.00 0.00 38 1016.9
20260506202314 22 36 4.8 8.0 0.00 0.00 0.00 37 1016.9
20260506201826 22 295 3.2 6.4 0.00 0.00 0.00 37 1016.9
20260506201318 22 264 1.6 6.4 0.00 0.00 0.00 38 1017.1
20260506200829 22 279 3.2 6.4 0.00 0.00 0.00 40 1017.2
20260506200320 21 84 1.6 6.4 0.00 0.00 0.00 40 1017.2
20260506195810 21 65 1.6 8.0 0.00 0.00 0.00 42 1017.3
20260506195341 21 245 3.2 9.7 0.00 0.00 0.00 41 1017.4
20260506194830 21 326 4.8 9.7 0.00 0.00 0.00 41 1017.4
20260506194322 21 302 4.8 9.7 0.00 0.00 0.00 40 1017.4
20260506193817 21 238 4.8 9.7 0.00 0.00 0.00 41 1017.5
20260506193327 21 231 4.8 9.7 0.00 0.00 0.00 43 1017.7
20260506192819 20 323 6.4 11.3 0.00 0.00 0.00 43 1017.7
20260506192330 20 295 4.8 9.7 0.00 0.00 0.00 44 1017.7
20260506191820 20 41 3.2 12.9 0.00 0.00 0.00 45 1017.9
20260506191311 20 3 3.2 12.9 0.00 0.00 0.00 46 1017.9
20260506190823 20 269 3.2 11.3 0.00 0.00 0.00 46 1018.0
20260506190313 20 105 3.2 11.3 0.00 0.00 0.00 45 1018.0
20260506185845 20 339 1.6 6.4 0.00 0.00 0.00 46 1018.0
20260506185319 19 51 1.6 9.7 0.00 0.00 0.00 48 1018.1
20260506184811 19 311 3.2 9.7 0.00 0.00 0.00 47 1018.1
20260506184320 19 255 1.6 8.0 0.00 0.00 0.00 47 1018.2
20260506183832 19 300 3.2 8.0 0.00 0.00 0.00 47 1018.2
20260506183323 19 261 1.6 8.0 0.00 0.00 0.00 49 1018.3
20260506182815 18 89 1.6 8.0 0.00 0.00 0.00 50 1018.3
20260506182326 18 269 1.6 8.0 0.00 0.00 0.00 49 1018.3
20260506181838 18 311 3.2 8.0 0.00 0.00 0.00 50 1018.4
20260506181328 18 241 0.0 9.7 0.00 0.00 0.00 50 1018.5
20260506180819 18 285 0.0 8.0 0.00 0.00 0.00 51 1018.5
20260506180313 17 56 0.0 8.0 0.00 0.00 0.00 53 1018.5
20260506175825 17 264 1.6 8.0 0.00 0.00 0.00 52 1018.5
20260506175317 17 308 4.8 8.0 0.00 0.00 0.00 53 1018.6
20260506174828 17 308 4.8 8.0 0.00 0.00 0.00 53 1018.6
20260506174318 17 110 1.6 9.7 0.00 0.00 0.00 54 1018.6
20260506173830 17 304 3.2 11.3 0.00 0.00 0.00 54 1018.6
20260506173321 17 306 4.8 11.3 0.00 0.00 0.00 55 1018.6
20260506172812 16 32 1.6 9.7 0.00 0.00 0.00 55 1018.7
20260506172324 16 323 3.2 9.7 0.00 0.00 0.00 57 1018.7
20260506171818 16 309 1.6 9.7 0.00 0.00 0.00 57 1018.6
20260506171328 16 36 3.2 11.3 0.00 0.00 0.00 58 1018.6
20260506170840 16 316 3.2 11.3 0.00 0.00 0.00 59 1018.5
20260506170331 16 321 4.8 8.0 0.00 0.00 0.00 57 1018.6
20260506165821 16 299 3.2 9.7 0.00 0.03 0.00 59 1018.5
20260506165312 15 354 0.0 8.0 0.00 0.03 0.00 62 1018.5
20260506164843 15 316 3.2 8.0 0.00 0.03 0.00 61 1018.6
20260506164314 15 305 3.2 8.0 0.00 0.03 0.00 61 1018.6
20260506163826 15 237 1.6 8.0 0.00 0.03 0.00 61 1018.6
20260506163316 15 307 1.6 8.0 0.00 0.03 0.00 61 1018.5
20260506162811 15 54 0.0 6.4 0.00 0.03 0.00 63 1018.6
20260506162324 15 309 3.2 6.4 0.00 0.03 0.00 63 1018.6
20260506161835 15 42 1.6 4.8 0.00 0.03 0.00 64 1018.5
20260506161345 15 309 0.0 3.2 0.00 0.03 0.00 65 1018.5
20260506160815 14 309 1.6 4.8 0.00 0.03 0.00 64 1018.4
20260506160327 14 302 1.6 4.8 0.00 0.03 0.00 64 1018.5
20260506155819 14 309 0.0 0.0 0.00 0.08 0.00 64 1018.5
20260506155311 13 308 0.0 0.0 0.00 0.08 0.00 66 1018.5
20260506154822 13 79 0.0 0.0 0.00 0.08 0.00 66 1018.5
20260506154317 13 6 0.0 0.0 0.00 0.08 0.00 68 1018.5
20260506153829 13 340 0.0 0.0 0.00 0.08 0.00 68 1018.5
20260506153320 13 274 0.0 0.0 0.00 0.08 0.00 70 1018.5
20260506152831 13 179 0.0 0.0 0.00 0.08 0.00 71 1018.5
20260506152321 12 279 0.0 0.0 0.00 0.08 0.00 74 1018.5
20260506151834 12 278 0.0 0.0 0.00 0.08 0.00 74 1018.5
20260506151325 12 312 0.0 0.0 0.00 0.08 0.00 74 1018.5
20260506150815 12 317 0.0 0.0 0.00 0.08 0.00 73 1018.5
20260506150325 12 120 0.0 0.0 0.00 0.08 0.00 74 1018.5
20260506145816 12 120 0.0 0.0 0.00 0.15 0.00 75 1018.5
20260506145311 12 120 0.0 0.0 0.00 0.15 0.00 76 1018.5
20260506144822 11 120 0.0 0.0 0.00 0.15 0.00 78 1018.6
20260506144312 11 120 0.0 0.0 0.00 0.15 0.00 79 1018.6
20260506143823 11 120 0.0 0.0 0.00 0.15 0.00 83 1018.5
20260506143315 11 120 0.0 0.0 0.00 0.15 0.00 86 1018.5
20260506142825 10 120 0.0 0.0 0.00 0.15 0.00 90 1018.5
20260506142315 9 120 0.0 0.0 0.00 0.15 0.00 91 1018.5
20260506141827 8 120 0.0 0.0 0.00 0.15 0.00 92 1018.4
20260506141338 8 120 0.0 0.0 0.00 0.15 0.00 93 1018.4
20260506140812 7 120 0.0 0.0 0.00 0.15 0.00 93 1018.3
20260506140343 7 120 0.0 0.0 0.00 0.15 0.00 92 1018.3
20260506135831 7 120 0.0 0.0 0.00 0.18 0.00 92 1018.2
20260506135322 7 120 0.0 0.0 0.00 0.18 0.00 92 1018.2
20260506134812 7 120 0.0 0.0 0.00 0.18 0.00 92 1018.1
20260506134324 6 120 0.0 0.0 0.00 0.18 0.00 92 1018.2
20260506133814 6 120 0.0 0.0 0.00 0.18 0.00 92 1018.1
20260506133325 6 120 0.0 0.0 0.00 0.18 0.00 92 1018.2
20260506132816 6 120 0.0 0.0 0.00 0.18 0.00 92 1018.2
20260506132328 6 120 0.0 0.0 0.00 0.18 0.00 92 1018.3
20260506131820 6 120 0.0 0.0 0.00 0.18 0.00 92 1018.2
20260506131331 6 120 0.0 0.0 0.00 0.18 0.00 92 1018.0
20260506130821 6 120 0.0 0.0 0.00 0.18 0.00 92 1018.1
20260506130316 6 120 0.0 0.0 0.00 0.18 0.00 91 1018.1
20260506125828 6 120 0.0 0.0 0.00 0.23 0.00 91 1018.0
20260506125320 6 120 0.0 0.0 0.00 0.23 0.00 91 1018.0
20260506124812 6 120 0.0 0.0 0.00 0.23 0.00 91 1018.0
20260506124323 6 120 0.0 0.0 0.00 0.23 0.00 91 1018.0
20260506123834 6 120 0.0 0.0 0.00 0.23 0.00 91 1017.9
20260506123343 6 120 0.0 0.0 0.00 0.23 0.00 91 1017.7
20260506122813 6 120 0.0 0.0 0.00 0.23 0.00 90 1017.9
20260506122345 7 119 0.0 0.0 0.00 0.23 0.00 91 1017.8
20260506121814 7 120 0.0 0.0 0.00 0.23 0.00 91 1017.6
20260506121330 7 120 0.0 0.0 0.00 0.23 0.00 91 1017.7
20260506120820 7 119 0.0 0.0 0.00 0.23 0.00 91 1017.6
20260506120311 7 120 0.0 0.0 0.00 0.23 0.00 90 1017.6
20260506115822 7 120 0.0 0.0 0.00 0.25 0.00 90 1017.6
20260506115313 7 120 0.0 0.0 0.00 0.25 0.00 90 1017.7
20260506114843 7 120 0.0 0.0 0.00 0.25 0.00 91 1017.6
20260506114312 7 120 0.0 0.0 0.00 0.25 0.00 90 1017.6
20260506113843 7 120 0.0 0.0 0.00 0.25 0.00 90 1017.5
20260506113333 7 120 0.0 0.0 0.00 0.25 0.00 90 1017.6
20260506112844 7 120 0.0 0.0 0.00 0.25 0.00 90 1017.7
20260506112333 7 120 0.0 0.0 0.00 0.25 0.00 90 1017.6
20260506111824 7 120 0.0 0.0 0.00 0.25 0.00 90 1017.6
20260506111315 7 120 0.0 0.0 0.00 0.25 0.00 90 1017.5
20260506110830 7 120 0.0 0.0 0.00 0.25 0.00 90 1017.5
20260506110342 7 220 0.0 0.0 0.00 0.25 0.00 89 1017.5
20260506105813 7 220 0.0 0.0 0.00 0.25 0.00 90 1017.5
20260506105324 7 220 0.0 0.0 0.00 0.25 0.00 90 1017.5
20260506104814 7 220 0.0 0.0 0.00 0.25 0.00 89 1017.4
20260506104325 7 220 0.0 0.0 0.00 0.25 0.00 89 1017.6
20260506103816 7 220 0.0 0.0 0.00 0.25 0.00 89 1017.4
20260506103327 8 220 0.0 0.0 0.00 0.25 0.00 89 1017.4
20260506102839 8 220 0.0 0.0 0.00 0.25 0.00 89 1017.5
20260506102349 8 220 0.0 0.0 0.00 0.25 0.00 89 1017.4
20260506101818 8 220 0.0 0.0 0.00 0.25 0.00 88 1017.4
20260506101313 8 220 0.0 0.0 0.00 0.25 0.00 88 1017.5
20260506100844 8 220 0.0 0.0 0.00 0.25 0.00 89 1017.4
20260506100313 8 220 0.0 0.0 0.00 0.25 0.00 89 1017.3
20260506095823 8 220 0.0 0.0 0.00 0.28 0.00 88 1017.4
20260506095314 8 220 0.0 0.0 0.00 0.28 0.00 88 1017.4
20260506094846 8 220 0.0 0.0 0.00 0.28 0.00 88 1017.4
20260506094316 9 220 0.0 0.0 0.00 0.28 0.00 87 1017.4
20260506093849 9 220 0.0 0.0 0.00 0.28 0.00 87 1017.4
20260506093319 9 220 0.0 0.0 0.00 0.28 0.00 87 1017.4
20260506092830 9 220 0.0 0.0 0.00 0.28 0.00 87 1017.5
20260506092324 9 220 0.0 0.0 0.00 0.28 0.00 87 1017.5
20260506091815 9 220 0.0 0.0 0.00 0.28 0.00 87 1017.5
20260506091346 9 220 0.0 0.0 0.00 0.28 0.00 86 1017.6
20260506090815 9 220 0.0 0.0 0.00 0.28 0.00 86 1017.6
20260506090327 10 220 0.0 0.0 0.00 0.28 0.00 85 1017.6